Location: Ch�risy
(50.2331°N, 2.9131°E)
Time: 19:45:57
(UTC+00:00)

ATLAS 3B R/B - Pass Details

Date: 17 January 2021
Orbit: 1006 x 1189 km, 63.8° (Epoch: 26 February)

Event Time Altitude Azimuth Distance (km) Brightness Sun altitude
Rises 17:28:47 0° 316° (NW) 3,852 6.0 -11.1°
Reaches altitude 10° 17:31:23 10° 314° (NW) 2,919 5.4 -11.5°
Maximum altitude 17:38:15 67° 235° (SW) 1,202 3.2 -12.5°
Drops below altitude 10° 17:45:24 10° 154° (SSE) 3,036 5.0 -13.6°
Sets 17:48:10 0° 152° (SSE) 4,015 5.6 -14.1°
